TIME,DELAY(SENSOR),PRES,T(CTD),SAL,OXYGEN,RAWTEMP,T(OPTODE),TCPHASE,TURBIDITY,TURBIDITY_GAIN,FLUOR,BETA,CDOM,ED411.5,ED443.8,ED489.6,PAR,COMP,TILT,TILTY(TILT),CHECK
1340696648,6469,268.1799926757812500,5.8836002349853520,34.8991012573242200,343.7562866210937500,624.7935180664062000,5.8659877777099610,32.5296401977539060,16,3,48,108,62,2147638765,2147392383,2147282038,2148318719,2967,2,-4,13337
1340696710,6468,264.2500000000000000,5.8854999542236330,34.8973999023437500,343.5723876953125000,624.7744750976562000,5.8666019439697270,32.5353584289550800,16,3,48,109,62,2147639675,2147390779,2147281600,2148319080,2594,2,-4,16644
1340696772,6467,260.2200012207031000,5.8800001144409180,34.8949012756347660,343.7668151855469000,624.8906860351562000,5.8628559112548830,32.5309104919433600,16,3,48,109,62,2147638266,2147392351,2147282138,2148319505,2204,1,-4,34886
1340696833,6469,256.3800048828125000,5.8801999092102050,34.8936996459960940,343.9628906250000000,624.8870239257812000,5.8629760742187500,32.5244712829589840,16,3,48,110,62,2147635821,2147391738,2147281275,2148320168,1915,0,-4,35704
1340696894,6467,252.5500030517578000,5.8881998062133790,34.8927001953125000,344.4242858886719000,624.6995239257812000,5.8690190315246580,32.5054817199707000,16,3,46,109,62,2147638674,2147391606,2147280872,2148317842,1668,0,-4,1886
1340696955,6469,248.9100036621093800,5.8877000808715820,34.8917007446289060,344.5640869140625000,624.6552124023438000,5.8704490661621090,32.4998512268066400,16,3,50,109,62,2147638473,2147393384,2147280292,2148316530,1433,2,-4,12334
1340697016,6467,245.4199981689453000,5.8910999298095700,34.8885002136230500,343.3612976074219000,624.5758056640625000,5.8730068206787110,32.5391197204589840,16,3,47,108,63,2147635634,2147392598,2147278505,2148319432,1174,2,-4,43293
1340697077,6469,242.0899963378906200,5.8926000595092770,34.8839988708496100,342.8460083007812500,624.5159301757812000,5.8749370574951170,32.5555305480957000,16,3,48,108,62,2147636461,2147392882,2147280973,2148317165,738,2,-4,44519
1340697138,6467,238.8699951171875000,5.8947000503540040,34.8827018737793000,341.7448120117187500,624.4669189453125000,5.8765158653259280,32.5918197631835940,15,3,48,109,62,2147635876,2147397942,2147280328,2148318112,139,2,-4,15150
1340697199,6469,235.7899932861328000,5.8966999053955080,34.8787994384765600,340.9613952636719000,624.3623046875000000,5.8798890113830570,32.6165008544921900,16,3,48,110,62,2147636483,2147393174,2147282316,2148319428,3345,0,-4,42154
1340697262,6467,232.7700042724609400,5.9032001495361330,34.8771018981933600,338.5744934082031000,624.1672973632812000,5.8861727714538570,32.6947288513183600,16,3,48,112,62,2147639620,2147393992,2147282157,2148317819,2851,0,-4,39034
1340697323,6470,229.9400024414062500,5.9128999710083010,34.8769989013671900,338.1193847656250000,623.9357299804688000,5.8936390876770020,32.7061080932617200,16,3,49,112,62,2147637604,2147394696,2147281073,2148320470,2613,0,-4,61852
1340697386,6467,227.0599975585937500,5.9039998054504395,34.8732986450195300,339.1224060058594000,624.0573120117188000,5.8897190093994140,32.6741790771484400,16,3,48,108,62,2147639190,2147393005,2147279560,2148319826,2281,0,-4,5199
1340697447,6470,224.3000030517578000,5.9419999122619630,34.8721008300781250,337.9231872558594000,623.1174926757812000,5.9200038909912110,32.6989212036132800,16,3,48,117,63,2147637928,2147395121,2147279263,2148320707,2217,0,-4,59134
1340697510,6468,221.5000000000000000,5.9551000595092770,34.8708000183105500,337.0986938476562500,622.6713256835938000,5.9343800544738770,32.7190208435058600,16,3,48,111,64,2147635976,2147391739,2147281019,2148319062,1911,0,-4,20191
1340697571,6468,218.8200073242187500,5.9759998321533200,34.8675003051757800,329.5404052734375000,622.0178222656250000,5.9554328918457030,32.9714889526367200,16,3,50,109,64,2147638436,2147393544,2147279176,2148319610,1472,2,-4,31547
1340697634,6470,215.9700012207031200,5.9151000976562500,34.8543014526367200,320.7143859863281000,623.4343872070312000,5.9097938537597660,33.3137702941894500,16,3,48,110,65,2147637645,2147392278,2147277846,2148316388,1234,1,-4,15683
1340697695,6468,213.2100067138672000,5.9442000389099120,34.8513984680175800,316.7699890136719000,622.9890747070312000,5.9241428375244140,33.4513397216796900,16,3,48,112,64,2147640424,2147394381,2147281110,2148320863,933,2,-4,60436
1340697758,6468,210.3200073242187500,5.9457001686096190,34.8480987548828100,316.8634033203125000,622.9133300781250000,5.9265818595886230,33.4460411071777340,15,3,49,112,66,2147640886,2147396749,2147282116,2148319300,734,1,-4,44073
1340697819,6468,207.5399932861328000,5.9145998954772950,34.8403015136718750,318.1260070800781000,623.6820068359375000,5.9018139839172360,33.4130592346191400,16,3,49,109,64,2147637558,2147394344,2147277755,2148320315,154,1,-4,41944
1340697882,6466,204.6799926757812500,5.9341001510620120,34.8408012390136700,320.3081054687500000,623.7584228515625000,5.8993530273437500,33.3346290588378900,16,3,48,111,64,2147633645,2147393956,2147281956,2148320410,3369,1,-4,19881
1340697943,6470,202.0200042724609400,5.9376001358032230,34.8376007080078100,320.1033020019531000,623.2078857421875000,5.9170908927917480,33.3320999145507800,16,3,48,114,64,2147638253,2147392621,2147281677,2148323272,3069,0,-4,33936
1340698006,6467,199.3099975585937500,5.9218001365661620,34.8305015563964840,319.8934936523437500,623.4752197265625000,5.9084777832031250,33.3446693420410160,16,3,50,114,64,2147636287,2147392968,2147281536,2148320895,2742,1,-4,63237
1340698067,6468,196.7599945068359400,5.9207000732421875,34.8303985595703100,320.9003906250000000,623.5311279296875000,5.9066767692565920,33.3089714050293000,16,3,48,112,64,2147638074,2147392498,2147280603,2148320388,2664,2,-4,16405
1340698130,6465,194.1600036621093800,5.8667001724243160,34.8157005310058600,322.8405151367187500,625.1569824218750000,5.8542671203613280,33.2672004699707000,16,3,49,110,64,2147640603,2147393873,2147281764,2148322207,2519,2,-4,17868
1340698191,6467,191.8000030517578000,5.8695998191833500,34.8151016235351560,323.7897033691406000,625.2116699218750000,5.8525052070617680,33.2334709167480500,16,3,49,112,64,2147639775,2147393553,2147280639,2148319533,2465,1,-4,32836
1340698281,6469,187.6699981689453000,5.8505001068115230,34.8081016540527340,323.6986999511719000,625.4799194335938000,5.8438591957092285,33.2417106628418000,16,3,50,113,64,2147638920,2147392603,2147282308,2148319286,2012,0,-4,38054
1340698342,6468,184.0700073242187500,5.9446997642517090,34.8110008239746100,324.7763061523437500,622.5485839843750000,5.9383320808410645,33.1511001586914060,16,3,49,111,63,2147636635,2147393014,2147278916,2148317728,1725,0,-4,14113
1340698405,6469,180.4100036621093800,5.9711999893188480,34.8143005371093750,328.7434997558594000,622.1550903320312000,5.9510102272033690,33.0023307800293000,16,3,50,110,64,2147635455,2147391958,2147283437,2148318372,1302,0,-4,64960
1340698466,6469,176.9100036621093800,6.0486998558044430,34.8244018554687500,331.0903015136719000,619.6621704101562000,6.0312771797180180,32.8754692077636700,16,3,48,116,63,2147636223,2147392859,2147283739,2148320630,895,2,-4,8480
1340698529,6466,173.3800048828125000,6.0865001678466800,34.8292007446289060,335.8225097656250000,618.5958862304688000,6.0655879974365230,32.6921081542968750,11,3,49,114,62,2147634203,2147394061,2147283785,2148320291,31,2,-4,30770
1340698590,6467,170.0000000000000000,6.0956001281738280,34.8260993957519500,340.0093078613281000,618.2235107421875000,6.0775718688964840,32.5419692993164060,16,3,48,116,62,2147636776,2147392109,2147282225,2148319766,3303,1,-4,57845
1340698653,6467,166.5200042724609400,6.1124000549316410,34.8255996704101560,341.4042968750000000,617.6126708984375000,6.0972208976745605,32.4837417602539060,15,3,50,116,62,2147640022,2147391762,2147283121,2148319199,2883,2,-4,39548
1340698714,6469,163.1600036621093800,6.1255002021789550,34.8246994018554700,342.5288085937500000,617.1511840820312000,6.1120610237121580,32.4376602172851560,15,3,50,115,62,2147636095,2147392689,2147285265,2148321997,2436,2,-4,64894
1340698777,6467,159.5899963378906200,6.1367998123168945,34.8196983337402340,342.0425109863281000,616.8148193359375000,6.1228809356689450,32.4483604431152340,16,3,50,113,62,2147636630,2147391625,2147285184,2148319021,2215,2,-4,5928
1340698838,6467,156.2299957275390600,6.1497001647949220,34.8157997131347660,341.2763977050781000,616.4990844726562000,6.1330342292785645,32.4690017700195300,16,3,49,114,63,2147636045,2147391268,2147285151,2148320963,1845,2,-4,38106
1340698901,6466,152.7200012207031200,6.1732001304626465,34.8182983398437500,343.2001037597656000,615.8640747070312000,6.1534500122070310,32.3930511474609400,16,3,48,112,62,2147637769,2147390687,2147285275,2148319578,1429,0,-4,28847
1340698962,6467,149.3200073242187500,6.1757998466491700,34.8134994506835940,344.8370971679687500,615.7182006835938000,6.1581377983093260,32.3354606628418000,16,3,49,116,63,2147638404,2147392544,2147288342,2148323574,1259,0,-4,11098
1340699025,6467,145.8800048828125000,6.1946001052856445,34.8102989196777340,344.4819030761719000,615.1909179687500000,6.1750888824462890,32.3382186889648440,16,3,49,118,62,2147638230,2147390372,2147287286,2148322107,954,0,-4,8033
1340699086,6468,142.5899963378906200,6.1868000030517580,34.8059005737304700,343.4006958007812500,615.2631835937500000,6.1727662086486820,32.3760108947753900,16,3,50,116,63,2147638500,2147393096,2147288840,2148321224,335,2,-4,62179
1340699149,6468,139.2599945068359400,6.1957001686096190,34.8036994934082000,343.7250061035156000,615.1192016601562000,6.1773929595947270,32.3622817993164060,16,3,48,115,62,2147637746,2147393115,2147289586,2148316529,3263,0,-4,31382
1340699210,6469,136.0399932861328000,6.2170000076293945,34.7997016906738300,344.0552062988281000,614.5015258789062000,6.1972451210021970,32.3408012390136700,16,3,50,115,62,2147640397,2147390838,2147288909,2148323560,3064,0,-4,42459
1340699273,6466,132.7500000000000000,6.2368001937866210,34.7957992553710940,344.0932922363281000,613.8325805664062000,6.2187371253967285,32.3279495239257800,16,3,50,113,64,2147638299,2147393855,2147290984,2148322033,2582,0,-4,58946
1340699334,6469,129.7100067138672000,6.2253999710083010,34.7885017395019500,344.1842041015625000,614.4290161132812000,6.1995749473571780,32.3352088928222660,16,3,50,114,64,2147638842,2147392091,2147292904,2148321755,2447,0,-4,61494
1340699397,6469,126.6800003051757800,6.2298002243041990,34.7876014709472660,343.1636962890625000,613.8364257812500000,6.2186150550842285,32.3592605590820300,16,3,50,118,62,2147638857,2147394380,2147295752,2148319738,2146,0,-4,40741
1340699458,6468,123.8000030517578100,6.2479000091552730,34.7872009277343750,344.0732116699219000,613.4542236328125000,6.2308940887451170,32.3218193054199200,16,3,48,120,62,2147634509,2147393001,2147295789,2148321325,1928,0,-4,30681
1340699521,6467,120.9499969482421900,6.2603001594543460,34.7844009399414060,345.3814086914062500,613.0964965820312000,6.2423839569091800,32.2721290588378900,16,3,51,117,62,2147639926,2147393462,2147299277,2148323067,1595,0,-4,24564
1340699582,6467,118.2600021362304700,6.2829999923706055,34.7850990295410160,346.3287048339844000,612.2849121093750000,6.2684478759765625,32.2264213562011700,16,3,50,115,62,2147640374,2147392251,2147301485,2148320891,1382,2,-4,6117
1340699645,6469,115.5599975585937500,6.3403000831604000,34.7817993164062500,347.4890136718750000,610.7141113281250000,6.3188781738281250,32.1608695983886700,16,3,50,117,62,2147638641,2147391811,2147301083,2148322610,1111,2,-4,17901
1340699706,6468,113.1100006103515600,6.3694000244140625,34.7781982421875000,349.2114868164062500,609.8807983398438000,6.3456211090087890,32.0898208618164060,16,3,50,119,62,2147638176,2147393197,2147301531,2148321810,220,2,-4,58484
1340699769,6467,110.6500015258789000,6.3779001235961910,34.7774009704589840,350.2218017578125000,609.5031127929688000,6.3577399253845215,32.0500106811523440,16,3,50,120,62,2147637636,2147393266,2147304909,2148325700,3475,0,-4,27672
1340699830,6469,108.2799987792968800,6.4032001495361330,34.7741012573242200,351.2901000976562500,608.8565063476562000,6.3784852027893070,32.0040397644043000,16,3,51,118,62,2147638345,2147393439,2147303309,2148321503,3140,2,-4,62223
1340699920,6467,104.1399993896484400,6.4408998489379880,34.7666015625000000,353.0281066894531000,607.6024780273438000,6.4187049865722660,31.9260101318359380,12,3,54,124,62,2147635743,2147394134,2147309042,2148326280,2862,2,-4,41461
1340699981,6469,100.4599990844726600,6.4637999534606930,34.7644996643066400,354.4544982910156000,606.7761230468750000,6.4452018737792970,31.8656902313232420,16,3,55,122,62,2147634312,2147392200,2147308767,2148324219,2482,2,-4,33865
1340700044,6467,96.5800018310546900,6.4762997627258300,34.7630996704101560,354.8514099121094000,606.2454833984375000,6.4622077941894530,31.8439598083496100,16,3,58,123,62,2147636443,2147395053,2147313279,2148323789,2279,2,-4,12825
1340700105,6467,92.8499984741211000,6.5012001991271970,34.7611999511718750,354.9088134765625000,605.5761718750000000,6.4836602210998535,31.8307399749755860,16,3,60,127,62,2147633901,2147396808,2147318682,2148325485,1930,1,-4,30710
1340700191,6468,87.9700012207031200,6.5398001670837400,34.7565002441406250,353.7149047851562500,604.3991699218750000,6.5213742256164550,31.8494091033935550,16,3,62,131,62,2147637407,2147398719,2147323821,2148327135,1614,0,-4,32084
1340700252,6468,85.2200012207031200,6.5574002265930180,34.7540016174316400,352.2832031250000000,603.8917236328125000,6.5376281738281250,31.8872509002685550,16,3,63,125,63,2147639506,2147396122,2147332607,2148331058,1386,2,-4,19403
1340700315,6468,82.3000030517578100,6.5806999206542970,34.7514991760253900,350.4555053710937500,603.1693725585938000,6.5607619285583500,31.9345798492431640,16,3,64,124,63,2147636429,2147396186,2147339583,2148331144,1114,0,-4,6922
1340700376,6468,79.3899993896484400,6.6066999435424805,34.7504005432128900,349.3505859375000000,602.3521118164062000,6.5869312286376950,31.9568691253662100,16,3,67,126,64,2147641503,2147400072,2147355738,2148334884,1062,0,-4,46692
1340700439,6467,76.3600006103515600,6.6311001777648930,34.7494010925293000,349.0849914550781000,601.4421997070312000,6.6160578727722170,31.9502296447753900,16,3,68,124,64,2147640836,2147403999,2147377211,2148338463,523,2,-4,13590
1340700500,6464,73.4599990844726600,6.6613998413085940,34.7482986450195300,348.8226928710937500,600.6834716796875000,6.6403388977050780,31.9459991455078120,16,3,71,126,64,2147640653,2147406564,2147405018,2148347058,69,1,-4,34784
1340700563,6467,70.6399993896484400,6.6918997764587400,34.7490997314453100,348.9891052246094000,599.6417236328125000,6.6736721992492680,31.9230995178222660,16,3,70,127,64,2147638774,2147411747,2147427725,2148352845,123,0,-4,25525
1340700624,6468,68.3099975585937500,6.7698998451232910,34.7498016357421900,349.3085021972656000,597.5189208984375000,6.7415599822998050,31.8767890930175780,15,3,72,125,64,2147639688,2147415369,2147444342,2148359542,3408,2,-4,40609
1340700710,6469,65.0599975585937500,6.8063998222351070,34.7494010925293000,350.6733093261719000,596.1259155273438000,6.7860832214355470,31.8086700439453120,16,3,72,131,64,2147640927,2147417686,2147464008,2148367889,2742,2,-4,18041
1340700771,6468,62.1800003051757800,6.9046001434326170,34.7496986389160160,351.4126892089844000,592.9868164062500000,6.8863530158996580,31.7320194244384770,16,3,76,136,62,2147641448,2147420090,2147476113,2148374449,2499,2,-4,49472
1340700834,6468,59.3100013732910160,6.9335999488830570,34.7247009277343750,346.9425964355469000,591.9193115234375000,6.9204268455505370,31.8605403900146500,16,3,83,127,64,2147642111,2147420031,2147487290,2148379706,2093,0,-4,10311
1340700895,6467,56.4399986267089840,7.2206997871398930,34.7271003723144500,343.7473144531250000,583.6342773437500000,7.1845421791076660,31.8284893035888670,15,3,87,140,64,2147643633,2147425759,2147511186,2148390418,1997,1,-4,1199
1340700958,6467,53.3199996948242200,7.2070999145507810,34.7014007568359400,336.0733032226562500,583.4274291992188000,7.1911258697509770,32.0837593078613300,51,3,74,123,65,2147648219,2147439409,2147554915,2148409503,1704,1,-4,50685
1340701019,6468,50.1899986267089840,7.4019999504089355,34.6823005676269500,332.2254028320312500,577.5914916992188000,7.3767800331115720,32.1193008422851560,16,3,78,124,66,2147655747,2147446248,2147609554,2148432803,1524,0,-4,51766
1340701082,6467,47.2000007629394500,7.5602002143859860,34.6823005676269500,333.1072082519531000,572.7894287109375000,7.5293140411376950,32.0093498229980500,15,3,85,125,66,2147655122,2147460579,2147672954,2148463798,1271,2,-4,48397
1340701143,6468,44.6699981689453100,7.7002000808715820,34.6815986633300800,333.8197937011719000,568.2268066406250000,7.6740531921386720,31.9098491668701170,16,3,90,128,65,2147670687,2147478966,2147733956,2148495446,1290,0,-4,1491
1340701206,6470,42.3899993896484400,8.0572996139526370,34.6777000427246100,332.3438110351562500,558.0695800781250000,7.9956188201904300,31.7950897216796880,15,3,115,149,66,2147669042,2147485658,2147766724,2148515094,1061,1,-4,26619
1340701267,6470,40.7500000000000000,8.2522001266479500,34.6800994873046900,331.9494934082031000,551.6865844726562000,8.1972484588623050,31.7056503295898440,19,3,149,154,66,2147676489,2147497978,2147806861,2148537453,310,2,-4,58362
1340701356,6469,38.1100006103515600,8.7361001968383790,34.6867980957031250,331.5248107910156000,536.4843139648438000,8.6761131286621100,31.4778900146484380,33,3,190,243,66,2147694504,2147526161,2147916137,2148602390,2857,2,-4,10101
1340701417,6471,35.3400001525878900,9.1227998733520500,34.6968994140625000,334.8413085937500000,524.2260742187500000,9.0609054565429690,31.1725101470947270,39,3,227,304,64,2147714285,2147563360,2148069663,2148690084,1809,2,-4,17666
1340701480,6470,32.5900001525878900,9.4643001556396480,34.6996994018554700,339.2172851562500000,513.5231933593750000,9.3959369659423830,30.8607292175292970,49,3,282,337,65,2147760808,2147642811,2148343113,2148840932,1191,2,-4,47162
1340701541,6470,29.9599990844726560,9.8515996932983400,34.6847000122070300,339.9447937011719000,501.0338134765625000,9.7858343124389650,30.6462306976318360,61,3,364,337,65,2147824630,2147747994,2148692603,2149031729,202,2,-4,49194
1340701604,6469,27.5000000000000000,10.0065002441406250,34.6986999511718750,342.9047851562500000,495.1622924804687500,9.9687500000000000,30.4608802795410160,59,3,481,473,65,2147943025,2147929100,2149238700,2149321147,212,0,-4,13246
1340701665,6470,25.4699993133544920,10.1247997283935550,34.7047004699707000,345.2849121093750000,490.7887878417969000,10.1048402786254880,30.3180294036865230,87,3,746,540,68,2148127396,2148209238,2150004676,2149700296,664,0,-4,7681
1340701755,6472,22.0799999237060550,10.5176000595092770,34.6978988647460940,348.0031127929687500,477.7445983886719000,10.5099897384643550,30.0377998352050780,102,3,1191,643,66,2148976402,2149502825,2153006842,2151042765,1133,1,-4,36506
1340701816,6472,19.1599998474121100,11.0433998107910160,34.6949005126953100,348.9531860351562500,459.9135131835937500,11.0620698928833000,29.7478599548339840,140,3,1670,588,66,2150412694,2151573466,2156989700,2152800072,973,0,-4,62391
1340701879,6469,16.8299999237060550,11.4748001098632810,34.6949996948242200,351.8752136230469000,448.2755126953125000,11.4213695526123050,29.4892902374267580,181,3,838,560,66,2152045618,2153763958,2160815936,2154565453,1673,0,-4,24561
1340701940,6470,14.9099998474121100,11.7412996292114260,34.7061004638671900,354.5490112304687500,439.3111877441406000,11.6975898742675780,29.2793006896972660,83,3,561,519,67,2154329723,2156587752,2165267011,2156763876,1009,1,-4,14131
1340702018,6470,12.1099996566772460,11.9646997451782230,34.7168998718261700,356.6748962402344000,430.9108886718750000,11.9560403823852540,29.0959300994873050,85,3,501,601,64,2160073636,2163215816,2174811652,2161756319,892,0,-5,1060
1340702090,6470,8.6400003433227540,12.8189001083374020,34.7060012817382800,351.3958129882812500,405.0220947265625000,12.7503004074096680,28.8997001647949220,96,3,534,580,63,2173854738,2178601970,2193974070,2172494262,3189,3,-9,42778
1340702144,6472,6.1500000953674320,12.8743000030517580,34.7173004150390600,347.4285888671875000,401.1257934570312500,12.8695697784423830,28.9695796966552730,102,3,494,570,62,2187468676,2193294738,2210401791,2182967634,3226,-3,-7,15311
1340702192,6468,4.1500000953674320,12.8729000091552730,34.7193984985351560,346.4938049316406000,401.0646057128906000,12.8714399337768550,28.9979400634765620,96,3,427,530,63,2207844694,2214828479,2232793466,2199460154,2987,5,-14,8274
1340702239,6471,3.0699999332427980,0.0000000000000000,0.0000000000000000,346.2413940429687500,400.8688049316406000,12.8774299621582030,29.0032691955566400,94,3,353,518,62,2220009252,2227008767,2243609206,2210430902,3291,-6,6,33185
1340702270,6470,1.8799999952316284,0.0000000000000000,0.0000000000000000,346.1022033691406000,400.7385864257812500,12.8814096450805660,29.0057601928710940,98,3,312,513,61,2237509311,2245124836,2260804361,2227451995,1159,-10,1,46573
